TimeMDT,TemperatureF,Dew PointF,Humidity,Sea Level PressureIn,VisibilityMPH,Wind Direction,Wind SpeedMPH,Gust SpeedMPH,PrecipitationIn,Events,Conditions,WindDirDegrees,DateUTC
12:51 AM,46.0,36.0,68,29.91,10.0,Calm,Calm,-,N/A,,Clear,0,2011-10-03 06:51:00
1:51 AM,45.0,37.0,74,29.91,10.0,NE,3.5,-,N/A,,Clear,40,2011-10-03 07:51:00
2:51 AM,44.1,37.0,76,29.91,10.0,Calm,Calm,-,N/A,,Scattered Clouds,0,2011-10-03 08:51:00
3:51 AM,42.1,37.0,82,29.90,10.0,Calm,Calm,-,N/A,,Clear,0,2011-10-03 09:51:00
4:51 AM,42.1,34.0,73,29.90,10.0,North,3.5,-,N/A,,Clear,10,2011-10-03 10:51:00
6:51 AM,39.0,33.1,79,29.92,10.0,Calm,Calm,-,N/A,,Clear,0,2011-10-03 12:51:00
8:51 AM,46.9,37.9,71,29.92,10.0,Calm,Calm,-,N/A,,Scattered Clouds,0,2011-10-03 14:51:00
9:51 AM,50.0,39.9,68,29.92,10.0,Calm,Calm,-,N/A,,Partly Cloudy,0,2011-10-03 15:51:00
10:51 AM,57.0,39.9,53,29.91,10.0,Calm,Calm,-,N/A,,Clear,0,2011-10-03 16:51:00
11:51 AM,63.0,37.0,38,29.88,10.0,South,6.9,-,N/A,,Clear,190,2011-10-03 17:51:00
12:51 PM,68.0,32.0,26,29.85,10.0,South,8.1,-,N/A,,Partly Cloudy,170,2011-10-03 18:51:00
2:51 PM,73.0,33.1,23,29.79,10.0,SSE,13.8,20.7,N/A,,Scattered Clouds,160,2011-10-03 20:51:00
4:51 PM,73.9,34.0,23,29.75,10.0,South,12.7,-,N/A,,Clear,190,2011-10-03 22:51:00
5:51 PM,72.0,34.0,25,29.75,10.0,South,10.4,-,N/A,,Clear,180,2011-10-03 23:51:00
6:51 PM,69.1,32.0,25,29.74,10.0,NNW,5.8,-,N/A,,Clear,340,2011-10-04 00:51:00
7:51 PM,61.0,35.1,38,29.76,10.0,NNE,4.6,-,N/A,,Clear,20,2011-10-04 01:51:00
8:51 PM,55.0,35.1,47,29.75,10.0,ENE,3.5,-,N/A,,Clear,60,2011-10-04 02:51:00
9:51 PM,55.0,36.0,49,29.74,10.0,NW,3.5,-,N/A,,Partly Cloudy,310,2011-10-04 03:51:00
10:51 PM,57.0,41.0,55,29.72,10.0,ESE,8.1,-,0.00,,Scattered Clouds,120,2011-10-04 04:51:00
11:51 PM,53.1,45.0,74,29.69,10.0,Calm,Calm,-,N/A,,Mostly Cloudy,0,2011-10-04 05:51:00